Weather History for Suffolk, VA

Change the Weather History Date:

Sunday, October 28, 2012

  Actual Average Record
Temperature  
Mean Temperature 60 °F -  
Max Temperature 62 °F 67 °F 84 °F (1984)
Min Temperature 57 °F 47 °F 30 °F (1957)
Degree Days  
Heating Degree Days 6    
Growing Degree Days 10 (Base 50)    
Moisture  
Dew Point 60 °F    
Average Humidity 99    
Maximum Humidity 100    
Minimum Humidity 94    
Precipitation  
Precipitation 2.47 in - - ()
Sea Level Pressure  
Sea Level Pressure 29.54 in    
Wind  
Wind Speed 14 mph (NNE)    
Max Wind Speed 18 mph    
Max Gust Speed 29 mph    
Visibility 10 miles    
Events Rain    
Averages and records for this station are not official NWS values.
T = Trace of Precipitation, MM = Missing Value Source: NWS Daily Summary

Daily Weather History Graph

Daily Weather History Graph

Search for Another Location

Airport:

Trip Planner

Search our weather history database for the weather conditions in past years. The results will help you decide how hot, cold, wet, or windy it might be!

Date:

Astronomy

Oct. 28, 2012 Rise Set
Actual Time 7:26 AM EDT 6:13 PM EDT
Civil Twilight 6:59 AM EDT 6:39 PM EDT
Nautical Twilight 6:29 AM EDT 7:10 PM EDT
Astronomical Twilight 5:59 AM EDT 7:40 PM EDT
Moon 5:29 PM EDT (10/28) 6:18 AM EDT (10/28)
Length of Visible Light 11h 39m
Length of Day
10h 46m
Waxing Gibbous, 99% of the Moon is Illuminated
Oct 28
Waxing Gibbous
Oct 29
Full
Nov 6
Last Quarter
Nov 13
New
Nov 20
First Quarter

Hourly Weather History & Observations

Time (EDT) Temp. Dew Point Humidity Pressure Visibility Wind Dir Wind Speed Gust Speed Precip Events Conditions
12:15 AM 62.6 °F 60.8 °F 94% 29.68 in 10.0 mi NNE 15.0 mph 25.3 mph 0.02 in Rain Light Rain
12:35 AM 62.6 °F 60.8 °F 94% 29.67 in 10.0 mi NNE 13.8 mph 21.9 mph 0.04 in Rain Rain
12:55 AM 62.6 °F 60.8 °F 94% 29.67 in 10.0 mi NNE 13.8 mph 19.6 mph 0.11 in Rain Rain
1:15 AM 62.6 °F 60.8 °F 94% 29.66 in 10.0 mi NNE 17.3 mph 26.5 mph 0.06 in Rain Heavy Rain
1:35 AM 62.6 °F 60.8 °F 94% 29.66 in 10.0 mi NNE 15.0 mph 21.9 mph 0.16 in Rain Rain
1:55 AM 62.6 °F 60.8 °F 94% 29.66 in 10.0 mi NNE 13.8 mph 23.0 mph 0.26 in Rain Heavy Rain
2:15 AM 60.8 °F 60.8 °F 100% 29.66 in 10.0 mi NNE 16.1 mph 24.2 mph 0.09 in Rain Rain
2:35 AM 60.8 °F 60.8 °F 100% 29.66 in 10.0 mi NNE 13.8 mph 25.3 mph 0.17 in Rain Rain
2:55 AM 60.8 °F 60.8 °F 100% 29.65 in 10.0 mi NNE 15.0 mph 24.2 mph 0.21 in Rain Rain
3:15 AM 60.8 °F 60.8 °F 100% 29.63 in 10.0 mi North 17.3 mph 25.3 mph 0.04 in Rain Rain
3:35 AM 60.8 °F 60.8 °F 100% 29.63 in 10.0 mi NNE 12.7 mph 27.6 mph 0.07 in Rain Light Rain
3:55 AM 60.8 °F 60.8 °F 100% 29.62 in 10.0 mi NNE 16.1 mph 24.2 mph 0.09 in Rain Light Rain
4:15 AM 60.8 °F 60.8 °F 100% 29.61 in 10.0 mi NNE 16.1 mph 25.3 mph 0.03 in Rain Light Rain
4:35 AM 60.8 °F 60.8 °F 100% 29.61 in 7.0 mi NNE 17.3 mph 26.5 mph 0.06 in Rain Rain
4:55 AM 60.8 °F 60.8 °F 100% 29.61 in 10.0 mi NNE 16.1 mph 26.5 mph 0.10 in Rain Rain
5:15 AM 60.8 °F 60.8 °F 100% 29.60 in 7.0 mi NNE 18.4 mph 28.8 mph 0.06 in Rain Rain
5:35 AM 60.8 °F 60.8 °F 100% 29.60 in 10.0 mi NNE 15.0 mph 25.3 mph 0.16 in Rain Rain
5:55 AM 60.8 °F 60.8 °F 100% 29.59 in 10.0 mi NNE 18.4 mph 27.6 mph 0.22 in Rain Rain
6:15 AM 60.8 °F 60.8 °F 100% 29.59 in 10.0 mi NNE 15.0 mph 24.2 mph 0.05 in Rain Rain
6:35 AM 60.8 °F 60.8 °F 100% 29.58 in 10.0 mi NNE 12.7 mph 24.2 mph 0.10 in Rain Rain
6:55 AM 60.8 °F 60.8 °F 100% 29.57 in 10.0 mi NNE 17.3 mph 27.6 mph 0.12 in Rain Light Rain
7:15 AM 60.8 °F 60.8 °F 100% 29.58 in 10.0 mi NNE 17.3 mph 24.2 mph 0.03 in Rain Rain
7:35 AM 60.8 °F 60.8 °F 100% 29.58 in 10.0 mi NNE 17.3 mph 23.0 mph 0.07 in Rain Rain
7:55 AM 60.8 °F 60.8 °F 100% 29.59 in 10.0 mi NNE 15.0 mph 20.7 mph 0.10 in Rain Light Rain
8:15 AM 60.8 °F 60.8 °F 100% 29.58 in 10.0 mi North 11.5 mph 23.0 mph 0.02 in Rain Rain
8:35 AM 60.8 °F 60.8 °F 100% 29.59 in 10.0 mi NNE 15.0 mph 23.0 mph 0.05 in Rain Rain
8:55 AM 60.8 °F 60.8 °F 100% 29.59 in 10.0 mi North 12.7 mph 24.2 mph 0.10 in Rain Rain
9:15 AM 60.8 °F 60.8 °F 100% 29.58 in 10.0 mi NNE 12.7 mph 21.9 mph 0.04 in Rain Rain
9:35 AM 60.8 °F 60.8 °F 100% 29.59 in 10.0 mi NNE 11.5 mph 19.6 mph 0.07 in Rain Rain
9:55 AM 60.8 °F 60.8 °F 100% 29.58 in 10.0 mi North 18.4 mph 25.3 mph 0.10 in Rain Light Rain
10:35 AM 60.8 °F 60.8 °F 100% 29.57 in 10.0 mi North 13.8 mph 24.2 mph 0.06 in Rain Rain
10:55 AM 60.8 °F 60.8 °F 100% 29.57 in 10.0 mi North 10.4 mph 19.6 mph 0.11 in Rain Rain
11:15 AM 60.8 °F 60.8 °F 100% 29.56 in 10.0 mi NNE 10.4 mph 17.3 mph 0.03 in Rain Rain
11:35 AM 60.8 °F 60.8 °F 100% 29.55 in 10.0 mi North 12.7 mph 19.6 mph 0.07 in Rain Rain
11:55 AM 60.8 °F 60.8 °F 100% 29.54 in 10.0 mi NNE 10.4 mph 19.6 mph 0.09 in Rain Light Rain
12:15 PM 60.8 °F 60.8 °F 100% 29.54 in 10.0 mi NNE 11.5 mph 17.3 mph 0.03 in Rain Rain
12:35 PM 60.8 °F 60.8 °F 100% 29.53 in 10.0 mi NNE 13.8 mph 20.7 mph 0.09 in Rain Rain
1:15 PM 60.8 °F 60.8 °F 100% 29.51 in 10.0 mi NNE 15.0 mph 19.6 mph 0.02 in Rain Light Rain
1:35 PM 60.8 °F 60.8 °F 100% 29.50 in 10.0 mi North 12.7 mph 21.9 mph 0.04 in Rain Light Rain
1:55 PM 60.8 °F 60.8 °F 100% 29.50 in 10.0 mi North 8.1 mph 19.6 mph 0.06 in Rain Rain
2:15 PM 59.0 °F 59.0 °F 100% 29.50 in 10.0 mi North 11.5 mph 17.3 mph 0.03 in Rain Rain
2:35 PM 60.8 °F 60.8 °F 100% 29.49 in 10.0 mi North 8.1 mph - 0.06 in Rain Rain
2:55 PM 60.8 °F 60.8 °F 100% 29.48 in 10.0 mi NNE 13.8 mph 18.4 mph 0.08 in Rain Rain
3:15 PM 60.8 °F 60.8 °F 100% 29.48 in 10.0 mi NNE 13.8 mph 25.3 mph 0.03 in Rain Light Rain
3:35 PM 60.8 °F 60.8 °F 100% 29.48 in 10.0 mi NNE 13.8 mph 20.7 mph 0.05 in Rain Light Rain
3:55 PM 59.0 °F 59.0 °F 100% 29.48 in 10.0 mi North 11.5 mph 19.6 mph 0.08 in Rain Rain
4:15 PM 59.0 °F 59.0 °F 100% 29.47 in 10.0 mi NNE 13.8 mph 20.7 mph 0.04 in Rain Rain
4:35 PM 59.0 °F 59.0 °F 100% 29.46 in 10.0 mi NNE 12.7 mph 23.0 mph 0.06 in Rain Light Rain
4:55 PM 60.8 °F 60.8 °F 100% 29.46 in 10.0 mi North 12.7 mph 23.0 mph 0.09 in Rain Light Rain
5:15 PM 60.8 °F 60.8 °F 100% 29.47 in 10.0 mi North 16.1 mph 19.6 mph 0.02 in Rain Rain
5:35 PM 60.8 °F 60.8 °F 100% 29.46 in 10.0 mi NNE 16.1 mph 24.2 mph 0.06 in Rain Rain
5:55 PM 60.8 °F 60.8 °F 100% 29.47 in 10.0 mi North 16.1 mph 24.2 mph 0.09 in Rain Rain
6:15 PM 60.8 °F 60.8 °F 100% 29.46 in 10.0 mi North 13.8 mph 20.7 mph 0.03 in Rain Light Rain
6:35 PM 60.8 °F 60.8 °F 100% 29.46 in 10.0 mi North 10.4 mph 20.7 mph 0.05 in Rain Light Rain
6:55 PM 60.8 °F 60.8 °F 100% 29.47 in 10.0 mi North 10.4 mph 19.6 mph 0.07 in Rain Rain
7:15 PM 60.8 °F 60.8 °F 100% 29.47 in 10.0 mi North 15.0 mph 21.9 mph 0.02 in Rain Light Rain
7:35 PM 60.8 °F 60.8 °F 100% 29.47 in 10.0 mi North 11.5 mph 21.9 mph 0.03 in Rain Light Rain
7:55 PM 60.8 °F 60.8 °F 100% 29.47 in 10.0 mi North 12.7 mph 24.2 mph 0.05 in Rain Rain
8:15 PM 59.0 °F 59.0 °F 100% 29.46 in 10.0 mi North 12.7 mph 20.7 mph 0.05 in Rain Rain
8:35 PM 59.0 °F 59.0 °F 100% 29.46 in 10.0 mi North 10.4 mph 17.3 mph 0.07 in Rain Light Rain
8:55 PM 59.0 °F 59.0 °F 100% 29.47 in 10.0 mi North 9.2 mph 23.0 mph 0.08 in Rain Light Rain
9:15 PM 59.0 °F 59.0 °F 100% 29.46 in 10.0 mi North 11.5 mph 18.4 mph 0.01 in Rain Light Rain
9:55 PM 57.2 °F 57.2 °F 100% 29.45 in 10.0 mi North 11.5 mph 16.1 mph 0.04 in Rain Light Rain
10:15 PM 57.2 °F 57.2 °F 100% 29.46 in 10.0 mi NNW 4.6 mph - 0.01 in Rain Light Rain
10:35 PM 57.2 °F 57.2 °F 100% 29.45 in 10.0 mi NNW 9.2 mph 16.1 mph 0.02 in Rain Light Rain
10:55 PM 57.2 °F 57.2 °F 100% 29.43 in 10.0 mi North 11.5 mph 19.6 mph 0.04 in Rain Light Rain
11:15 PM 57.2 °F 57.2 °F 100% 29.42 in 10.0 mi North 15.0 mph 21.9 mph 0.03 in Rain Rain
11:35 PM 57.2 °F 57.2 °F 100% 29.41 in 10.0 mi North 9.2 mph 18.4 mph 0.06 in Rain Rain
11:55 PM 57.2 °F 57.2 °F 100% 29.40 in 10.0 mi North 13.8 mph 21.9 mph 0.09 in Rain Light Rain